SCP
0 0 0 0 0 0 0 0 0 0 0 0 0 0 0 0 0 0 0 0 0 0 0 0 0 0 0 0 0 0 0 0 0 0 0 0 0 0 0 0 0 0 0 -0
0 0 0 0 0 0 0 0 0 0 0 0 0 0 0 0 0 0 0 0 0 0 0 0 0 0 0 0 0 0 0 0 0 0 0 0 0 0 0 0 0 0 0 0
0 0 0 0 0 1 0 0 0 0 0 0 0 0 0 0 0 0 0 0 0 0 0 0 0 0 0 0 0 0 0 0 0 0 0 0 0 0 0 0 0 0 0 -0
0 0 0 0 0 0 0 0 0 0 0 0 0 0 0 0 0 0 0 0 0 0 0 0 0 0 0 0 0 0 0 0 0 0 0 0 0 0 0 0 0 0 -0 -0
0 0 0 0 0 0 0 0 0 0 0 0 0 0 0 0 0 0 0 0 0 0 0 0 0 0 0 0 0 0 0 0 0 0 0 0 0 0 0 0 0 0 0 -0
0 0 0 -0 0 0 0 0 0 0 0 0 0 0 0 0 0 0 0 0 0 0 0 0 0 0 0 0 0 0 0 0 0 0 0 0 0 0 0 0 0 0 0 -0
0 0 0 0 0 0 0 0 0 0 0 0 0 0 0 0 0 0 0 0 0 0 0 0 0 0 0 0 0 0 0 0 0 0 0 0 0 0 0 0 0 0 0 -0
0 0 0 0 0 0 0 0 0 0 0 0 0 0 0 0 0 0 0 0 0 0 0 0 0 0 0 0 0 0 0 0 0 0 0 0 0 0 0 0 0 0 0 0
0 0 0 0 0 0 0 0 0 0 0 0 0 0 0 0 0 0 0 0 0 0 0 0 0 0 0 0 0 0 0 0 0 0 0 0 0 0 0 0 -0 -0 0 0
0 0 -0 -0 0 0 0 0 0 0 0 0 0 0 0 0 0 0 0 0 0 0 0 0 0 0 0 0 0 0 0 0 0 0 0 0 0 0 0 0 0 0 0 0
0 0 0 0 0 0 0 0 0 0 0 0 0 0 0 0 0 0 0 0 0 0 0 0 0 0 0 0 0 0 0 0 0 0 0 0 0 0 0 0 0 0 0 0
0 0 0 0 0 0 0 0 0 0 0 0 0 0 0 0 0 0 0 0 0 0 0 0 0 0 0 0 0 0 0 0 0 0 0 0 0 0 0 0 0 0 0 -0
0 0 0 0 0 0 0 0 0 0 0 0 0 0 0 0 0 0 0 0 0 0 0 0 0 0 0 0 0 0 0 0 0 0 0 0 0 0 0 0 0 0 0 -0
0 0 0 0 0 0 0 0 0 0 0 0 0 0 0 0 0 0 0 0 0 0 0 0 0 0 0 0 0 0 0 0 0 0 0 0 0 0 0 0 0 0 0 -0
0 0 0 0 0 0 0 0 0 0 0 0 0 0 0 0 0 0 0 0 0 0 0 0 0 0 0 0 0 0 0 0 0 0 0 0 0 0 0 0 0 0 -0 -0
0 0 0 0 0 0 0 0 0 0 0 0 0 0 0 0 0 0 0 0 0 0 0 0 0 0 0 0 0 0 0 0 0 0 0 0 0 0 0 0 0 0 0 0
-0 -0 -0 -0 -0 0 0 0 0 0 0 0 0 0 0 0 0 0 0 0 0 0 0 0 0 0 0 0 0 0 0 0 0 0 0 0 0 0 0 0 0 0 0 -0
-0 -0 -0 -0 -0 0 0 0 0 0 0 0 0 0 0 0 0 0 0 0 0 0 0 0 0 0 0 0 0 0 0 0 0 0 0 -0 -0 0 0 0 0 0 0 -0
0 0 0 0 0 0 0 0 0 0 0 0 0 0 0 0 0 0 0 0 0 0 0 0 0 0 0 0 0 0 0 0 0 0 0 0 0 -0 0 0 0 -0 0 0
0 0 0 0 0 0 0 0 0 0 0 0 0 0 0 0 0 0 0 0 0 0 0 0 0 0 0 0 0 0 0 0 0 0 0 0 0 0 0 0 0 0 0 0
0 0 0 0 0 0 0 0 0 0 0 0 0 0 0 0 0 0 0 0 0 0 0 0 0 0 0 0 0 0 0 0 0 0 0 0 0 0 0 0 0 0 0 0
0 0 0 0 0 0 0 0 0 0 0 0 0 0 0 0 0 0 0 0 0 0 0 0 0 0 0 0 0 0 0 0 0 0 0 0 0 0 0 0 0 0 0 0
0 0 -0 0 0 0 0 0 0 0 0 0 0 0 0 0 0 0 0 0 0 0 0 0 0 0 0 0 0 0 0 0 0 0 0 0 0 0 0 0 0 0 0 0
0 0 0 0 0 0 0 0 0 0 0 0 0 0 0 0 0 0 0 0 0 0 0 0 0 0 0 0 0 0 0 0 0 0 0 0 0 0 0 0 0 0 0 0
0 0 0 0 0 0 0 0 0 0 0 0 0 0 0 0 0 0 0 0 0 0 0 0 0 0 0 0 0 -0 0 0 0 0 -0 -0 -0 -0 -0 -0 -0 -0 0 0
0 0 0 0 0 0 0 0 0 0 0 0 0 0 0 0 0 0 0 0 0 0 0 0 0 -0 -0 -0 -0 -0 -0 -0 -0 -0 -0 -0 -0 -0 -0 -0 -0 -0 -0 0
0 0 0 0 0 0 0 0 0 0 0 0 0 0 0 0 0 0 0 0 0 0 0 0 0 -0 -0 -0 -0 -0 -0 -0 -0 -0 -0 -0 -0 -0 -0 -0 0 -0 -0 -0
Wind_Speed_500mb
83 103 108 98 123 130 115 75 12 76 88 21 5 18 23 22 35 15 11 13 11 26 44 14 21 17 5 39 44 27 4 7 8 5 6 9 12 18 12 6 6 5 4 20
81 104 99 119 131 129 110 54 19 69 86 20 12 12 18 15 25 9 10 10 8 31 31 13 11 11 6 34 37 36 19 8 9 3 6 5 12 14 11 8 6 19 6 19
82 91 109 132 135 130 99 31 12 30 58 13 21 30 38 22 20 12 16 14 41 27 28 13 12 8 4 14 22 34 34 8 11 16 10 11 12 13 28 27 9 12 34 60
83 111 134 135 138 123 88 23 8 12 26 15 37 25 49 44 15 10 17 8 33 35 13 8 11 10 9 8 29 13 10 10 7 3 10 7 8 11 24 33 39 17 48 35
107 122 133 137 141 115 61 22 12 22 20 40 46 40 32 50 11 9 6 23 24 17 24 16 24 17 7 9 2 9 1 9 8 3 4 8 12 16 18 23 21 32 31 61
126 137 133 138 135 108 42 22 54 56 36 27 35 14 23 22 19 25 28 44 24 16 13 39 36 22 21 22 16 8 13 10 7 5 3 5 15 31 24 17 23 31 35 71
134 140 135 133 116 99 53 64 64 32 29 29 17 42 37 20 16 21 14 38 16 23 68 65 50 52 41 29 15 19 15 10 5 5 4 7 12 1 17 31 28 35 48 49
126 130 129 119 99 72 71 71 63 35 32 26 41 42 39 49 56 22 16 18 63 57 49 13 14 10 11 10 9 8 8 10 6 10 8 13 18 11 14 17 30 35 38 33
117 115 108 108 70 67 68 54 40 85 32 5 66 38 52 34 19 10 15 50 42 19 8 8 10 8 11 5 8 5 7 9 7 6 10 15 10 11 41 10 37 17 22 27
90 88 85 90 58 61 61 67 93 77 54 23 37 19 22 24 22 12 14 15 9 12 6 7 6 5 2 9 16 11 8 2 11 5 6 19 13 24 20 12 16 29 33 30
87 79 80 93 76 82 88 81 89 82 47 55 32 32 24 32 24 14 28 14 7 9 8 7 7 6 12 6 7 12 13 14 8 6 4 22 7 5 13 12 13 24 38 48
84 77 77 81 74 67 85 84 98 102 75 45 61 55 38 41 41 60 14 11 11 12 9 3 7 5 5 7 6 5 5 10 12 19 16 9 14 17 10 18 24 26 37 51
85 78 84 81 81 90 87 111 98 108 73 57 44 44 41 34 48 59 19 13 13 12 14 14 5 7 6 7 8 2 1 7 5 4 5 8 15 15 10 34 41 47 48 61
77 73 64 70 70 77 84 89 65 73 45 14 28 25 40 35 29 23 26 44 34 36 22 10 5 6 7 4 4 7 1 9 1 11 3 20 25 17 38 56 48 55 66 64
82 82 77 75 77 74 75 81 68 51 32 13 20 43 40 35 37 43 40 43 51 27 10 6 3 8 5 4 1 5 12 5 4 6 12 13 26 34 70 56 60 66 76 85
68 69 67 70 72 71 68 52 57 74 79 28 8 17 30 31 27 35 31 30 24 14 11 8 10 7 2 5 3 8 10 9 11 15 41 59 72 56 28 55 67 70 67 63
58 53 45 40 35 32 32 22 26 40 35 21 10 6 8 18 22 25 25 18 16 11 9 11 7 5 9 4 3 12 16 24 27 22 32 17 16 35 63 55 62 61 58 49
59 57 57 60 73 79 72 54 35 35 28 20 9 4 7 12 9 9 10 9 9 17 11 8 8 4 8 4 8 17 25 31 3 18 36 37 43 46 49 51 54 53 49 46
55 57 56 53 60 34 33 42 44 39 22 15 10 7 5 8 9 7 7 6 6 7 5 5 3 5 3 1 16 28 29 25 34 41 37 30 40 42 45 47 45 45 44 41
21 18 20 18 16 22 20 17 13 21 28 22 7 10 5 7 3 7 2 10 4 4 5 5 7 1 9 5 21 21 25 25 29 37 44 49 46 46 47 44 40 37 38 35
15 18 14 17 21 14 15 16 21 22 10 21 14 22 5 16 7 4 11 3 1 5 6 6 5 4 7 16 19 18 18 20 21 23 25 28 32 39 41 37 33 31 28 26
32 22 22 17 18 18 16 4 10 14 3 18 9 16 14 11 9 7 9 6 5 2 3 6 6 4 7 17 16 15 16 18 17 18 21 23 24 26 28 29 28 26 24 21
20 12 13 22 22 24 13 9 8 7 17 21 19 5 9 5 12 12 6 10 2 2 7 5 7 6 10 12 12 10 14 16 16 16 17 19 20 22 25 26 25 21 19 19
17 19 17 10 10 6 4 4 5 4 9 26 15 10 11 11 11 2 10 3 4 7 4 8 5 6 5 6 9 11 13 15 17 17 18 20 21 23 25 26 23 21 23 22
17 18 10 8 5 5 4 5 5 9 17 15 5 4 4 7 8 5 7 8 3 8 7 5 12 7 4 0 4 8 11 13 15 15 16 18 19 19 18 18 19 19 21 24
16 20 11 7 5 5 5 11 5 14 9 5 5 2 7 5 6 6 7 8 8 6 5 14 13 8 4 3 5 7 9 10 10 11 13 15 15 15 17 18 19 22 24 26
12 14 19 14 13 7 4 7 8 8 5 2 4 7 5 2 6 2 7 8 6 14 22 18 13 9 6 3 3 5 7 9 10 11 12 12 13 14 13 13 20 24 26 28
Wind_Direction_500mb
192 190 193 191 187 180 180 176 179 173 183 183 199 169 141 142 141 107 91 86 72 165 165 140 167 197 174 187 163 163 98 107 146 156 54 182 160 180 181 209 193 220 285 265
183 178 183 178 175 177 169 161 142 174 177 186 159 127 133 112 140 90 118 113 113 143 155 134 126 154 309 167 164 163 156 162 125 54 8 15 202 200 193 198 134 224 218 254
179 183 183 175 173 171 160 142 150 154 187 205 133 138 138 120 61 55 71 100 116 121 150 47 126 139 87 179 169 164 154 149 159 194 192 142 179 197 201 208 211 226 230 265
181 164 161 166 167 163 157 153 175 153 170 164 143 142 146 141 133 72 113 73 145 143 137 94 124 109 118 81 162 150 129 160 140 218 112 98 191 191 195 206 223 205 256 284
171 159 159 163 166 161 166 133 152 99 122 163 139 137 159 139 100 105 106 136 145 141 159 159 154 126 134 165 81 126 212 132 132 210 196 244 251 226 230 231 241 255 274 273
163 162 164 162 163 162 156 163 135 128 143 164 139 134 141 144 129 29 120 125 108 96 138 139 152 131 137 148 144 122 142 129 109 207 233 180 280 232 221 220 223 235 242 255
150 153 160 160 163 170 164 147 140 127 145 156 127 124 116 112 84 115 97 118 97 128 121 110 99 80 84 80 62 128 140 116 87 150 70 232 247 253 211 210 233 232 246 260
147 152 157 155 156 163 159 148 145 130 137 127 117 120 107 94 99 88 77 74 131 125 112 79 64 5 35 350 28 99 123 131 128 150 198 303 286 217 195 183 248 229 247 258
145 151 158 162 162 158 157 157 156 135 120 10 132 122 115 116 117 80 80 123 140 113 76 77 117 166 183 257 7 32 79 65 121 102 149 230 246 228 206 78 268 230 279 333
143 153 161 166 157 139 150 132 140 128 103 89 123 117 124 125 90 91 132 139 77 88 70 77 128 205 206 162 161 169 133 46 167 171 222 280 240 253 154 156 277 356 349 344
143 141 144 142 139 146 146 121 137 136 102 53 102 106 111 126 127 134 164 103 10 48 72 117 193 127 211 111 191 176 156 152 178 96 107 276 354 253 212 325 345 359 336 330
119 129 135 147 155 143 134 116 123 121 102 101 90 91 100 121 131 128 134 127 120 145 98 121 113 120 151 161 215 284 206 186 176 183 210 90 51 107 101 353 332 340 329 321
113 130 137 139 138 145 138 131 129 116 101 74 84 58 87 111 137 152 126 144 131 122 109 148 152 127 132 157 237 170 202 28 220 68 281 100 101 111 22 342 330 322 322 319
111 116 118 130 136 140 140 137 128 125 105 87 52 89 72 77 113 134 153 144 134 127 119 90 125 126 181 184 184 167 306 352 202 272 306 359 134 44 350 333 323 319 315 318
95 101 106 109 117 126 128 121 119 123 123 118 110 73 63 79 98 110 122 139 137 116 87 84 181 103 119 63 90 96 10 21 216 247 26 308 286 314 327 323 325 323 320 317
98 103 102 108 109 110 109 75 87 110 112 106 84 73 71 78 95 99 104 120 112 95 104 105 87 80 9 135 196 58 33 346 316 289 298 295 295 310 305 316 320 319 316 315
86 92 98 95 111 117 95 90 101 103 95 98 100 82 71 94 96 89 92 101 91 87 81 62 86 23 39 59 157 21 337 323 311 302 318 315 303 304 313 318 317 315 315 312
83 84 87 93 97 97 84 83 88 93 91 80 102 86 80 43 64 77 85 98 95 41 88 75 65 54 15 81 29 350 338 341 346 316 324 310 311 312 311 314 320 320 323 326
90 92 92 96 75 58 60 71 69 68 86 106 76 108 137 43 69 105 117 119 68 59 81 64 61 308 88 51 338 340 344 343 322 326 334 332 328 327 327 327 328 326 333 340
83 78 62 54 26 52 54 40 40 38 36 49 76 2 62 32 46 56 82 49 119 55 304 27 58 188 124 2 340 332 334 336 337 339 345 341 339 340 338 339 333 333 337 339
45 46 65 63 47 44 46 49 40 356 42 26 28 31 7 29 57 68 38 140 34 73 281 118 342 317 171 326 339 340 343 345 346 338 334 329 330 332 335 341 350 353 349 348
66 88 77 38 32 41 69 29 3 38 68 359 2 345 12 24 40 89 10 103 42 164 323 68 323 227 304 332 346 356 357 357 1 352 347 349 347 340 351 356 4 10 10 13
45 45 53 11 356 45 51 0 355 36 354 2 348 344 10 19 44 69 65 71 171 207 46 226 231 217 317 331 355 16 9 8 7 11 5 6 4 7 12 21 24 24 31 44
47 34 30 56 1 59 164 164 198 340 329 342 350 329 22 9 35 18 85 242 80 53 21 237 234 226 288 333 7 21 30 24 21 20 20 22 21 22 25 29 27 34 45 48
61 40 46 61 129 95 70 6 8 11 344 0 16 3 3 3 70 38 100 36 291 202 224 223 183 200 227 296 49 44 44 39 34 25 29 31 30 29 30 37 38 42 49 52
55 54 76 92 90 29 41 22 51 1 9 21 34 70 53 18 109 70 205 121 223 230 206 168 168 189 172 126 84 68 56 47 36 30 25 36 35 33 30 34 41 44 44 48
53 59 50 80 78 72 38 25 3 1 1 80 83 61 192 82 52 311 199 199 211 165 149 157 167 176 189 187 121 79 58 47 33 25 17 19 23 24 25 38 43 41 38 36
Wind_Speed_850mb
83 103 108 98 123 130 115 75 12 76 88 21 5 18 23 22 35 15 11 13 11 26 44 14 21 17 5 39 44 27 4 7 8 5 6 9 12 18 12 6 6 5 4 20
81 104 99 119 131 129 110 54 19 69 86 20 12 12 18 15 25 9 10 10 8 31 31 13 11 11 6 34 37 36 19 8 9 3 6 5 12 14 11 8 6 19 6 19
82 91 109 132 135 130 99 31 12 30 58 13 21 30 38 22 20 12 16 14 41 27 28 13 12 8 4 14 22 34 34 8 11 16 10 11 12 13 28 27 9 12 34 60
83 111 134 135 138 123 88 23 8 12 26 15 37 25 49 44 15 10 17 8 33 35 13 8 11 10 9 8 29 13 10 10 7 3 10 7 8 11 24 33 39 17 48 35
107 122 133 137 141 115 61 22 12 22 20 40 46 40 32 50 11 9 6 23 24 17 24 16 24 17 7 9 2 9 1 9 8 3 4 8 12 16 18 23 21 32 31 61
126 137 133 138 135 108 42 22 54 56 36 27 35 14 23 22 19 25 28 44 24 16 13 39 36 22 21 22 16 8 13 10 7 5 3 5 15 31 24 17 23 31 35 71
134 140 135 133 116 99 53 64 64 32 29 29 17 42 37 20 16 21 14 38 16 23 68 65 50 52 41 29 15 19 15 10 5 5 4 7 12 1 17 31 28 35 48 49
126 130 129 119 99 72 71 71 63 35 32 26 41 42 39 49 56 22 16 18 63 57 49 13 14 10 11 10 9 8 8 10 6 10 8 13 18 11 14 17 30 35 38 33
117 115 108 108 70 67 68 54 40 85 32 5 66 38 52 34 19 10 15 50 42 19 8 8 10 8 11 5 8 5 7 9 7 6 10 15 10 11 41 10 37 17 22 27
90 88 85 90 58 61 61 67 93 77 54 23 37 19 22 24 22 12 14 15 9 12 6 7 6 5 2 9 16 11 8 2 11 5 6 19 13 24 20 12 16 29 33 30
87 79 80 93 76 82 88 81 89 82 47 55 32 32 24 32 24 14 28 14 7 9 8 7 7 6 12 6 7 12 13 14 8 6 4 22 7 5 13 12 13 24 38 48
84 77 77 81 74 67 85 84 98 102 75 45 61 55 38 41 41 60 14 11 11 12 9 3 7 5 5 7 6 5 5 10 12 19 16 9 14 17 10 18 24 26 37 51
85 78 84 81 81 90 87 111 98 108 73 57 44 44 41 34 48 59 19 13 13 12 14 14 5 7 6 7 8 2 1 7 5 4 5 8 15 15 10 34 41 47 48 61
77 73 64 70 70 77 84 89 65 73 45 14 28 25 40 35 29 23 26 44 34 36 22 10 5 6 7 4 4 7 1 9 1 11 3 20 25 17 38 56 48 55 66 64
82 82 77 75 77 74 75 81 68 51 32 13 20 43 40 35 37 43 40 43 51 27 10 6 3 8 5 4 1 5 12 5 4 6 12 13 26 34 70 56 60 66 76 85
68 69 67 70 72 71 68 52 57 74 79 28 8 17 30 31 27 35 31 30 24 14 11 8 10 7 2 5 3 8 10 9 11 15 41 59 72 56 28 55 67 70 67 63
58 53 45 40 35 32 32 22 26 40 35 21 10 6 8 18 22 25 25 18 16 11 9 11 7 5 9 4 3 12 16 24 27 22 32 17 16 35 63 55 62 61 58 49
59 57 57 60 73 79 72 54 35 35 28 20 9 4 7 12 9 9 10 9 9 17 11 8 8 4 8 4 8 17 25 31 3 18 36 37 43 46 49 51 54 53 49 46
55 57 56 53 60 34 33 42 44 39 22 15 10 7 5 8 9 7 7 6 6 7 5 5 3 5 3 1 16 28 29 25 34 41 37 30 40 42 45 47 45 45 44 41
21 18 20 18 16 22 20 17 13 21 28 22 7 10 5 7 3 7 2 10 4 4 5 5 7 1 9 5 21 21 25 25 29 37 44 49 46 46 47 44 40 37 38 35
15 18 14 17 21 14 15 16 21 22 10 21 14 22 5 16 7 4 11 3 1 5 6 6 5 4 7 16 19 18 18 20 21 23 25 28 32 39 41 37 33 31 28 26
32 22 22 17 18 18 16 4 10 14 3 18 9 16 14 11 9 7 9 6 5 2 3 6 6 4 7 17 16 15 16 18 17 18 21 23 24 26 28 29 28 26 24 21
20 12 13 22 22 24 13 9 8 7 17 21 19 5 9 5 12 12 6 10 2 2 7 5 7 6 10 12 12 10 14 16 16 16 17 19 20 22 25 26 25 21 19 19
17 19 17 10 10 6 4 4 5 4 9 26 15 10 11 11 11 2 10 3 4 7 4 8 5 6 5 6 9 11 13 15 17 17 18 20 21 23 25 26 23 21 23 22
17 18 10 8 5 5 4 5 5 9 17 15 5 4 4 7 8 5 7 8 3 8 7 5 12 7 4 0 4 8 11 13 15 15 16 18 19 19 18 18 19 19 21 24
16 20 11 7 5 5 5 11 5 14 9 5 5 2 7 5 6 6 7 8 8 6 5 14 13 8 4 3 5 7 9 10 10 11 13 15 15 15 17 18 19 22 24 26
12 14 19 14 13 7 4 7 8 8 5 2 4 7 5 2 6 2 7 8 6 14 22 18 13 9 6 3 3 5 7 9 10 11 12 12 13 14 13 13 20 24 26 28
Wind_Direction_850mb
192 190 193 191 187 180 180 176 179 173 183 183 199 169 141 142 141 107 91 86 72 165 165 140 167 197 174 187 163 163 98 107 146 156 54 182 160 180 181 209 193 220 285 265
183 178 183 178 175 177 169 161 142 174 177 186 159 127 133 112 140 90 118 113 113 143 155 134 126 154 309 167 164 163 156 162 125 54 8 15 202 200 193 198 134 224 218 254
179 183 183 175 173 171 160 142 150 154 187 205 133 138 138 120 61 55 71 100 116 121 150 47 126 139 87 179 169 164 154 149 159 194 192 142 179 197 201 208 211 226 230 265
181 164 161 166 167 163 157 153 175 153 170 164 143 142 146 141 133 72 113 73 145 143 137 94 124 109 118 81 162 150 129 160 140 218 112 98 191 191 195 206 223 205 256 284
171 159 159 163 166 161 166 133 152 99 122 163 139 137 159 139 100 105 106 136 145 141 159 159 154 126 134 165 81 126 212 132 132 210 196 244 251 226 230 231 241 255 274 273
163 162 164 162 163 162 156 163 135 128 143 164 139 134 141 144 129 29 120 125 108 96 138 139 152 131 137 148 144 122 142 129 109 207 233 180 280 232 221 220 223 235 242 255
150 153 160 160 163 170 164 147 140 127 145 156 127 124 116 112 84 115 97 118 97 128 121 110 99 80 84 80 62 128 140 116 87 150 70 232 247 253 211 210 233 232 246 260
147 152 157 155 156 163 159 148 145 130 137 127 117 120 107 94 99 88 77 74 131 125 112 79 64 5 35 350 28 99 123 131 128 150 198 303 286 217 195 183 248 229 247 258
145 151 158 162 162 158 157 157 156 135 120 10 132 122 115 116 117 80 80 123 140 113 76 77 117 166 183 257 7 32 79 65 121 102 149 230 246 228 206 78 268 230 279 333
143 153 161 166 157 139 150 132 140 128 103 89 123 117 124 125 90 91 132 139 77 88 70 77 128 205 206 162 161 169 133 46 167 171 222 280 240 253 154 156 277 356 349 344
143 141 144 142 139 146 146 121 137 136 102 53 102 106 111 126 127 134 164 103 10 48 72 117 193 127 211 111 191 176 156 152 178 96 107 276 354 253 212 325 345 359 336 330
119 129 135 147 155 143 134 116 123 121 102 101 90 91 100 121 131 128 134 127 120 145 98 121 113 120 151 161 215 284 206 186 176 183 210 90 51 107 101 353 332 340 329 321
113 130 137 139 138 145 138 131 129 116 101 74 84 58 87 111 137 152 126 144 131 122 109 148 152 127 132 157 237 170 202 28 220 68 281 100 101 111 22 342 330 322 322 319
111 116 118 130 136 140 140 137 128 125 105 87 52 89 72 77 113 134 153 144 134 127 119 90 125 126 181 184 184 167 306 352 202 272 306 359 134 44 350 333 323 319 315 318
95 101 106 109 117 126 128 121 119 123 123 118 110 73 63 79 98 110 122 139 137 116 87 84 181 103 119 63 90 96 10 21 216 247 26 308 286 314 327 323 325 323 320 317
98 103 102 108 109 110 109 75 87 110 112 106 84 73 71 78 95 99 104 120 112 95 104 105 87 80 9 135 196 58 33 346 316 289 298 295 295 310 305 316 320 319 316 315
86 92 98 95 111 117 95 90 101 103 95 98 100 82 71 94 96 89 92 101 91 87 81 62 86 23 39 59 157 21 337 323 311 302 318 315 303 304 313 318 317 315 315 312
83 84 87 93 97 97 84 83 88 93 91 80 102 86 80 43 64 77 85 98 95 41 88 75 65 54 15 81 29 350 338 341 346 316 324 310 311 312 311 314 320 320 323 326
90 92 92 96 75 58 60 71 69 68 86 106 76 108 137 43 69 105 117 119 68 59 81 64 61 308 88 51 338 340 344 343 322 326 334 332 328 327 327 327 328 326 333 340
83 78 62 54 26 52 54 40 40 38 36 49 76 2 62 32 46 56 82 49 119 55 304 27 58 188 124 2 340 332 334 336 337 339 345 341 339 340 338 339 333 333 337 339
45 46 65 63 47 44 46 49 40 356 42 26 28 31 7 29 57 68 38 140 34 73 281 118 342 317 171 326 339 340 343 345 346 338 334 329 330 332 335 341 350 353 349 348
66 88 77 38 32 41 69 29 3 38 68 359 2 345 12 24 40 89 10 103 42 164 323 68 323 227 304 332 346 356 357 357 1 352 347 349 347 340 351 356 4 10 10 13
45 45 53 11 356 45 51 0 355 36 354 2 348 344 10 19 44 69 65 71 171 207 46 226 231 217 317 331 355 16 9 8 7 11 5 6 4 7 12 21 24 24 31 44
47 34 30 56 1 59 164 164 198 340 329 342 350 329 22 9 35 18 85 242 80 53 21 237 234 226 288 333 7 21 30 24 21 20 20 22 21 22 25 29 27 34 45 48
61 40 46 61 129 95 70 6 8 11 344 0 16 3 3 3 70 38 100 36 291 202 224 223 183 200 227 296 49 44 44 39 34 25 29 31 30 29 30 37 38 42 49 52
55 54 76 92 90 29 41 22 51 1 9 21 34 70 53 18 109 70 205 121 223 230 206 168 168 189 172 126 84 68 56 47 36 30 25 36 35 33 30 34 41 44 44 48
53 59 50 80 78 72 38 25 3 1 1 80 83 61 192 82 52 311 199 199 211 165 149 157 167 176 189 187 121 79 58 47 33 25 17 19 23 24 25 38 43 41 38 36